This is the latest recevied weather packets stored in our database for station/object W4BOD. If no packets are shown the sender has not sent any weather packets the latest 10 day(s).
| Time | Temp. | Humidity | Pressure | Rain* | Wind** | Luminosity | Snow |
|---|---|---|---|---|---|---|---|
| 1788061810 | 25° C | 83% | 1018.9 hPa | 0 mm | - | 0 W/m² | - |
| 1788061506 | 25° C | 83% | 1019 hPa | 0 mm | - | 0 W/m² | - |
| 1788061205 | 25.56° C | 81% | 1018.8 hPa | 0 mm | - | 0 W/m² | - |
| 1788060900 | 25.56° C | 80% | 1018.9 hPa | 0 mm | - | 0 W/m² | - |
| 1788060595 | 25.56° C | 80% | 1019 hPa | 0 mm | - | 0 W/m² | - |
| 1788060294 | 25.56° C | 80% | 1018.9 hPa | 0 mm | - | 0 W/m² | - |
| 1788059990 | 25.56° C | 79% | 1018.8 hPa | 0 mm | - | 0 W/m² | - |
| 1788059685 | 25.56° C | 82% | 1018.9 hPa | 0 mm | - | 0 W/m² | - |
| 1788059380 | 25.56° C | 81% | 1018.6 hPa | 0 mm | - | 0 W/m² | - |
| 1788059076 | 25.56° C | 81% | 1018.7 hPa | 0 mm | - | 0 W/m² | - |
| 1788058776 | 25.56° C | 81% | 1018.9 hPa | 0 mm | - | 0 W/m² | - |
| 1788058475 | 25.56° C | 79% | 1018.8 hPa | 0 mm | - | 0 W/m² | - |
| 1788058174 | 25.56° C | 79% | 1018.8 hPa | 0 mm | - | 0 W/m² | - |
| 1788057870 | 26.67° C | 79% | 1018.7 hPa | 0 mm | - | 0 W/m² | - |
| 1788057568 | 26.67° C | 76% | 1018.8 hPa | 0 mm | - | 0 W/m² | - |
| 1788057266 | 26.67° C | 75% | 1018.8 hPa | 0 mm | - | 0 W/m² | - |
| 1788056966 | 26.67° C | 75% | 1018.4 hPa | 0 mm | - | 0 W/m² | - |
| 1788056661 | 26.67° C | 75% | 1018.7 hPa | 0 mm | - | 0 W/m² | - |
| 1788056356 | 26.11° C | 80% | 1018.5 hPa | 0 mm | - | 0 W/m² | - |
| 1788056050 | 26.11° C | 82% | 1018.6 hPa | 0 mm | - | 0 W/m² | - |
| 1788055745 | 26.11° C | 82% | 1018.4 hPa | 0 mm | - | 0 W/m² | - |
| 1788055439 | 26.11° C | 81% | 1018.4 hPa | 0 mm | - | 0 W/m² | - |
| 1788055134 | 26.11° C | 80% | 1018.3 hPa | 0 mm | - | 0 W/m² | - |
| 1788054829 | 26.67° C | 80% | 1018.3 hPa | 0 mm | - | 0 W/m² | - |
| 1788054524 | 26.67° C | 79% | 1018.2 hPa | 0 mm | - | 0 W/m² | - |
* Rain latest hour (hover to see other rain measurements)
** Current wind speed in m/s (hover to see current wind gust speed)